Location: Castillon
(43.1358°N, 0.8654°E)
Time: 19:37:32
(UTC+00:00)

Cosmos 1655 Rocket - Pass Details

Date: 24 January 2021
Orbit: 971 x 1006 km, 83.0° (Epoch: 28 February)

Event Time Altitude Azimuth Distance (km) Brightness Sun altitude
Rises 19:36:04 0° 186° (S) 3,664 7.1 -28.6°
Reaches altitude 10° 19:38:34 10° 186° (S) 2,717 6.4 -29.1°
Enters shadow 19:44:14 76° 192° (SSW) 1,005 3.9 -30.1°
Exits shadow 19:53:31 - 8° (N) 3,659 7.0 -31.8°
Sets 19:53:34 0° 8° (N) 3,676 7.0 -31.8°
